| time (UTC) | temp C | wind direction | speed KPH | gust KPH | rain 1hr cm | rain 24hr cm | rain mn cm | humidity % | barometer mb |
| 20260831211510 | 12 | 164 | 0.0 | 0.0 | 0.00 | 0.00 | 0.00 | 81 | 1005.5 |
| 20260831210024 | 13 | 164 | 0.0 | 0.0 | 0.00 | 0.00 | 0.00 | 80 | 1005.4 |
| 20260831204509 | 13 | 164 | 0.0 | 0.0 | 0.00 | 0.00 | 0.00 | 79 | 1005.3 |
| 20260831203011 | 14 | 165 | 0.0 | 0.0 | 0.00 | 0.00 | 0.00 | 77 | 1005.2 |
| 20260831201510 | 14 | 164 | 0.0 | 0.0 | 0.00 | 0.00 | 0.00 | 74 | 1005.0 |
| 20260831200010 | 15 | 163 | 0.0 | 0.0 | 0.00 | 0.00 | 0.00 | 71 | 1005.0 |
| 20260831194509 | 15 | 163 | 0.0 | 3.2 | 0.00 | 0.00 | 0.00 | 69 | 1004.8 |
| 20260831193024 | 16 | 163 | 0.0 | 3.2 | 0.00 | 0.00 | 0.00 | 67 | 1004.6 |
| 20260831191511 | 16 | 163 | 0.0 | 4.8 | 0.00 | 0.00 | 0.00 | 65 | 1004.5 |
| 20260831190011 | 17 | 164 | 1.6 | 6.4 | 0.00 | 0.00 | 0.00 | 64 | 1004.5 |
| 20260831184510 | 17 | 164 | 1.6 | 6.4 | 0.00 | 0.00 | 0.00 | 61 | 1004.3 |
| 20260831183013 | 18 | 163 | 3.2 | 11.3 | 0.00 | 0.00 | 0.00 | 59 | 1004.2 |
| 20260831181515 | 18 | 163 | 4.8 | 11.3 | 0.00 | 0.00 | 0.00 | 59 | 1004.0 |
| 20260831180011 | 18 | 161 | 3.2 | 8.0 | 0.00 | 0.00 | 0.00 | 58 | 1004.0 |
| 20260831174509 | 19 | 223 | 3.2 | 11.3 | 0.00 | 0.00 | 0.00 | 54 | 1003.9 |
| 20260831173016 | 19 | 200 | 3.2 | 12.9 | 0.00 | 0.00 | 0.00 | 56 | 1003.8 |
| 20260831171511 | 20 | 246 | 8.0 | 17.7 | 0.00 | 0.00 | 0.00 | 55 | 1003.8 |
| 20260831170010 | 21 | 194 | 3.2 | 12.9 | 0.00 | 0.00 | 0.00 | 51 | 1003.7 |
| 20260831164510 | 20 | 221 | 8.0 | 17.7 | 0.00 | 0.00 | 0.00 | 51 | 1003.6 |
| 20260831163009 | 20 | 191 | 8.0 | 16.1 | 0.00 | 0.00 | 0.00 | 58 | 1003.5 |
| 20260831161511 | 20 | 192 | 6.4 | 17.7 | 0.00 | 0.00 | 0.00 | 59 | 1003.4 |
| 20260831160014 | 19 | 140 | 8.0 | 16.1 | 0.00 | 0.00 | 0.00 | 61 | 1003.5 |
| 20260831153009 | 18 | 121 | 4.8 | 14.5 | 0.00 | 0.00 | 0.00 | 64 | 1003.6 |
| 20260831151509 | 18 | 141 | 9.7 | 17.7 | 0.00 | 0.00 | 0.00 | 65 | 1003.6 |
| 20260831150009 | 18 | 96 | 11.3 | 19.3 | 0.00 | 0.00 | 0.00 | 65 | 1003.4 |
| 20260831144509 | 18 | 137 | 9.7 | 22.5 | 0.00 | 0.00 | 0.00 | 64 | 1003.4 |
| 20260831143009 | 18 | 155 | 11.3 | 27.4 | 0.00 | 0.00 | 0.00 | 62 | 1003.4 |
| 20260831141509 | 20 | 116 | 16.1 | 25.7 | 0.00 | 0.00 | 0.00 | 58 | 1003.3 |
| 20260831140009 | 20 | 148 | 6.4 | 16.1 | 0.00 | 0.00 | 0.00 | 54 | 1003.3 |
| 20260831134509 | 20 | 175 | 8.0 | 16.1 | 0.00 | 0.00 | 0.00 | 51 | 1003.3 |
| 20260831133009 | 19 | 166 | 9.7 | 16.1 | 0.00 | 0.00 | 0.00 | 59 | 1003.4 |
| 20260831131510 | 18 | 143 | 6.4 | 14.5 | 0.00 | 0.00 | 0.00 | 64 | 1003.4 |
| 20260831130009 | 17 | 189 | 11.3 | 17.7 | 0.00 | 0.00 | 0.00 | 66 | 1003.5 |
| 20260831124510 | 17 | 185 | 11.3 | 20.9 | 0.00 | 0.00 | 0.00 | 66 | 1003.6 |
| 20260831123014 | 17 | 188 | 9.7 | 17.7 | 0.00 | 0.00 | 0.00 | 64 | 1003.6 |
| 20260831121513 | 17 | 156 | 16.1 | 19.3 | 0.00 | 0.00 | 0.00 | 62 | 1003.6 |
| 20260831120011 | 17 | 161 | 11.3 | 19.3 | 0.00 | 0.00 | 0.00 | 62 | 1003.6 |
| 20260831114511 | 18 | 185 | 6.4 | 17.7 | 0.00 | 0.00 | 0.00 | 54 | 1003.4 |
| 20260831113010 | 18 | 129 | 11.3 | 24.1 | 0.00 | 0.00 | 0.00 | 59 | 1003.4 |
| 20260831111510 | 18 | 146 | 9.7 | 20.9 | 0.00 | 0.00 | 0.00 | 57 | 1003.4 |
| 20260831110013 | 18 | 148 | 6.4 | 11.3 | 0.00 | 0.00 | 0.00 | 55 | 1003.4 |
| 20260831104520 | 18 | 190 | 8.0 | 17.7 | 0.00 | 0.00 | 0.00 | 54 | 1003.5 |
| 20260831103015 | 18 | 163 | 9.7 | 17.7 | 0.00 | 0.00 | 0.00 | 54 | 1003.5 |
| 20260831101510 | 18 | 142 | 8.0 | 16.1 | 0.00 | 0.00 | 0.00 | 55 | 1003.7 |
| 20260831094527 | 17 | 170 | 11.3 | 16.1 | 0.00 | 0.00 | 0.00 | 58 | 1003.6 |
| 20260831093033 | 17 | 163 | 6.4 | 11.3 | 0.00 | 0.00 | 0.00 | 56 | 1003.6 |
| 20260831091509 | 17 | 169 | 6.4 | 12.9 | 0.00 | 0.00 | 0.00 | 59 | 1003.6 |
| 20260831081511 | 15 | 155 | 1.6 | 4.8 | 0.00 | 0.00 | 0.00 | 68 | 1003.9 |
| 20260831074510 | 17 | 155 | 0.0 | 3.2 | 0.00 | 0.00 | 0.00 | 62 | 1003.9 |
| 20260831073010 | 15 | 155 | 0.0 | 1.6 | 0.00 | 0.00 | 0.00 | 71 | 1004.0 |
| 20260831071525 | 15 | 157 | 0.0 | 1.6 | 0.00 | 0.00 | 0.00 | 71 | 1004.0 |
| 20260831070011 | 13 | 155 | 0.0 | 1.6 | 0.00 | 0.00 | 0.00 | 75 | 1004.1 |
| 20260831064509 | 13 | 155 | 0.0 | 3.2 | 0.00 | 0.00 | 0.00 | 80 | 1004.2 |
| 20260831054510 | 9 | 156 | 0.0 | 0.0 | 0.00 | 0.03 | 0.00 | 92 | 1004.3 |
| 20260831051516 | 8 | 155 | 3.2 | 8.0 | 0.00 | 0.03 | 0.00 | 90 | 1004.1 |
| 20260831044510 | 9 | 156 | 0.0 | 3.2 | 0.00 | 0.03 | 0.00 | 89 | 1004.1 |
| 20260831043010 | 10 | 155 | 0.0 | 4.8 | 0.00 | 0.03 | 0.00 | 88 | 1003.8 |
| 20260831034509 | 11 | 155 | 0.0 | 3.2 | 0.00 | 0.03 | 0.00 | 86 | 1003.9 |
| 20260831033018 | 11 | 155 | 4.8 | 11.3 | 0.00 | 0.03 | 0.00 | 84 | 1003.9 |
| 20260831031511 | 11 | 142 | 6.4 | 12.9 | 0.00 | 0.03 | 0.00 | 85 | 1004.0 |
| 20260831024512 | 11 | 82 | 0.0 | 3.2 | 0.00 | 0.03 | 0.00 | 82 | 1003.8 |
| 20260831023014 | 11 | 82 | 3.2 | 9.7 | 0.00 | 0.03 | 0.00 | 82 | 1003.8 |
| 20260831021515 | 11 | 156 | 0.0 | 4.8 | 0.00 | 0.03 | 0.00 | 81 | 1003.9 |
| 20260831014509 | 12 | 154 | 1.6 | 11.3 | 0.00 | 0.03 | 0.00 | 80 | 1003.9 |
| 20260831013010 | 12 | 171 | 6.4 | 11.3 | 0.00 | 0.03 | 0.00 | 81 | 1004.1 |
| 20260831011510 | 12 | 172 | 8.0 | 11.3 | 0.00 | 0.03 | 0.00 | 81 | 1004.0 |
| 20260831010011 | 12 | 171 | 1.6 | 8.0 | 0.00 | 0.03 | 0.00 | 81 | 1004.0 |
| 20260831004510 | 12 | 173 | 6.4 | 9.7 | 0.00 | 0.03 | 0.00 | 81 | 1004.2 |
| 20260831003017 | 12 | 175 | 8.0 | 12.9 | 0.00 | 0.03 | 0.00 | 81 | 1004.2 |
| 20260831001511 | 12 | 165 | 6.4 | 12.9 | 0.00 | 0.03 | 0.00 | 81 | 1004.2 |
| 20260831000016 | 12 | 165 | 6.4 | 9.7 | 0.00 | 0.03 | 0.00 | 81 | 1004.3 |
| 20260830234509 | 12 | 229 | 1.6 | 6.4 | 0.00 | 0.03 | 0.00 | 79 | 1004.2 |
| 20260830233010 | 12 | 227 | 4.8 | 9.7 | 0.00 | 0.03 | 0.00 | 79 | 1004.3 |
| 20260830231515 | 12 | 230 | 8.0 | 14.5 | 0.00 | 0.03 | 0.00 | 79 | 1004.2 |
| 20260830230009 | 12 | 237 | 6.4 | 17.7 | 0.00 | 0.03 | 0.00 | 79 | 1004.1 |
| 20260830224510 | 13 | 250 | 3.2 | 11.3 | 0.00 | 0.05 | 0.00 | 79 | 1003.9 |
| 20260830223009 | 13 | 226 | 4.8 | 11.3 | 0.00 | 0.05 | 0.00 | 79 | 1004.0 |
| 20260830221510 | 13 | 229 | 3.2 | 12.9 | 0.00 | 0.05 | 0.00 | 79 | 1003.9 |
| 20260830220010 | 13 | 229 | 6.4 | 16.1 | 0.00 | 0.05 | 0.05 | 79 | 1003.8 |
| 20260830214510 | 13 | 227 | 4.8 | 9.7 | 0.00 | 0.05 | 0.05 | 79 | 1003.8 |
| 20260830213010 | 13 | 266 | 1.6 | 17.7 | 0.00 | 0.05 | 0.05 | 79 | 1003.8 |